Theta_e
288 288 288 288 288 288 289 289 289 289 289 289 289 289 288 288 288 288 287 287 286 286 286 286 286 286 285 285 285 284 284 283 283 283 282 282 282 282 281 280 280 281 281 280 281 280 280 280 280 280 280 280 280 280 280 280 280 280 280 280 279 279 279 279 279 279 278 279 280 280 280 280 280 281 279 279 279 280 280 280 280 280 280 280 281
288 288 288 288 288 288 288 288 288 288 288 288 288 288 288 288 288 287 287 287 286 286 286 286 286 286 285 285 285 284 284 283 283 282 281 281 281 281 281 280 280 280 280 280 280 280 280 280 280 279 279 279 279 279 279 279 279 278 278 278 278 278 279 278 279 279 278 278 277 279 279 280 278 280 278 278 278 279 279 279 280 280 280 280 280
288 288 287 287 287 287 287 287 287 287 287 287 288 288 288 288 287 286 286 286 286 286 286 285 285 285 285 285 285 284 284 283 283 282 282 281 281 281 281 280 280 280 279 279 279 279 279 279 279 279 278 278 279 279 279 278 278 278 278 278 278 278 278 279 278 277 277 277 278 277 277 278 277 278 278 278 278 278 278 278 279 280 281 281 280
288 288 287 287 287 286 286 287 286 286 286 287 287 288 288 288 287 286 286 286 285 285 286 286 285 285 284 284 284 284 284 283 283 282 282 282 282 281 281 281 280 280 280 279 279 279 279 278 278 278 278 277 278 278 278 278 277 277 277 277 277 277 277 278 278 278 277 276 276 276 277 276 277 278 277 277 277 277 278 279 280 279 280 280 280
288 288 287 287 287 286 286 286 286 286 286 287 287 287 287 287 287 286 286 285 285 285 285 285 285 284 284 284 284 284 284 284 283 283 282 282 282 282 281 281 280 280 280 280 280 279 279 279 279 278 278 277 277 277 277 277 277 277 277 277 277 277 277 277 276 277 276 275 275 276 276 276 276 277 277 276 277 278 278 278 279 279 280 280 281
287 287 287 287 286 286 286 286 286 286 286 286 286 287 287 287 287 286 286 286 285 285 285 284 285 284 284 284 284 284 284 284 283 283 283 282 282 282 282 281 281 280 281 281 280 280 279 279 279 278 277 277 277 277 277 277 277 277 276 276 276 276 276 276 276 275 275 275 275 274 275 274 275 275 277 277 277 277 278 278 279 279 279 279 280
287 287 287 286 286 286 286 286 286 286 286 286 286 286 286 286 286 286 286 286 285 285 284 284 284 285 284 284 284 284 284 284 283 283 283 282 282 282 281 281 281 281 281 281 280 280 280 280 279 278 277 278 278 277 277 277 276 276 276 276 276 275 275 275 275 274 274 274 274 274 274 275 275 275 277 278 278 278 277 277 277 279 279 279 278
286 285 286 286 286 286 286 286 286 286 286 286 285 285 286 286 286 286 286 285 285 285 284 284 284 284 284 284 284 284 284 284 283 283 283 282 282 281 281 281 280 280 280 280 280 280 280 280 280 279 278 278 278 278 277 276 277 276 276 276 275 275 274 274 274 274 273 273 273 273 274 274 276 277 278 278 277 277 278 277 276 277 278 279 279
285 285 284 284 285 285 285 286 286 285 285 285 285 285 285 285 285 285 285 285 285 285 285 284 284 284 284 284 284 284 284 283 283 283 282 282 282 281 281 281 280 280 280 280 280 280 280 280 280 279 279 280 280 280 279 279 276 275 276 276 275 274 274 274 273 273 273 272 272 274 274 274 275 276 276 276 276 276 278 278 276 277 278 277 278
284 284 284 284 284 285 285 285 285 285 285 285 285 285 284 285 285 285 285 285 285 285 284 284 284 284 283 283 283 283 283 284 284 285 285 283 282 281 281 281 281 280 280 279 279 279 279 279 279 280 280 280 281 281 281 280 280 278 276 275 275 274 273 273 272 273 272 272 272 273 273 274 275 276 276 277 278 278 277 277 275 276 276 276 278
284 283 283 284 284 284 284 284 285 284 285 284 284 284 284 284 284 284 284 284 284 284 284 283 283 283 283 283 283 283 283 283 285 286 286 286 283 282 281 281 281 280 280 279 278 278 278 278 278 279 280 280 280 281 281 281 281 280 279 278 278 275 273 272 272 272 272 272 273 274 274 274 275 277 277 277 277 277 277 277 276 275 275 274 274
283 283 283 283 283 283 283 284 283 284 284 284 284 284 283 283 283 283 282 282 283 283 283 283 283 283 283 283 283 283 283 284 286 287 287 287 285 282 282 281 280 280 280 279 279 278 277 277 277 277 278 279 279 279 281 281 281 280 280 279 279 279 278 275 272 271 272 272 273 274 275 274 276 277 277 277 276 277 277 276 275 275 275 275 275
283 283 283 283 283 283 282 282 282 283 283 283 283 283 283 282 282 282 282 282 282 281 282 282 282 283 282 282 282 283 283 285 286 287 287 287 287 284 282 281 280 280 279 279 278 277 277 276 275 276 277 279 279 279 279 280 281 281 280 280 280 280 279 279 278 275 274 274 274 274 275 276 276 277 278 277 278 275 276 275 276 276 276 275 276
283 282 283 283 283 282 282 282 281 282 282 282 282 282 282 282 282 282 282 282 281 281 281 281 282 282 282 282 282 282 282 284 286 287 287 287 287 286 282 281 280 280 279 279 278 277 277 276 276 275 276 277 278 277 278 279 279 279 278 278 278 279 280 280 279 278 278 276 276 275 277 278 277 278 278 278 276 275 275 275 277 276 276 276 277
282 282 282 282 283 282 282 281 281 281 281 281 280 281 281 281 282 282 282 281 281 281 281 281 281 281 281 282 281 282 282 284 286 287 287 287 288 287 282 281 280 279 279 279 278 278 277 277 276 275 275 276 277 277 277 278 278 278 277 277 277 277 278 278 278 278 278 278 278 278 278 279 279 279 279 279 278 277 277 277 277 277 277 276 275
281 282 281 282 282 282 282 281 281 281 280 280 279 280 280 281 281 281 281 281 281 281 281 281 281 281 281 281 280 280 281 284 285 286 287 287 288 286 283 280 279 279 278 278 278 278 277 276 276 275 275 276 278 280 279 278 277 276 276 276 276 277 277 279 280 281 281 280 280 280 280 280 280 279 279 278 278 278 278 279 277 276 274 271 270
280 281 281 281 282 282 281 281 280 280 281 280 280 280 280 280 280 281 280 280 280 280 279 280 281 280 280 280 280 280 280 282 284 285 286 287 287 285 283 280 279 278 278 278 277 277 277 277 276 275 275 276 279 281 281 280 276 276 275 275 276 276 276 279 281 282 281 280 280 280 280 280 281 281 281 282 280 280 278 275 274 274 270 268 268
280 280 280 281 281 281 281 281 281 280 280 280 280 280 280 280 279 279 278 278 278 279 279 279 279 279 279 279 279 279 280 281 283 285 286 287 286 284 282 280 278 277 277 277 277 277 277 278 277 275 275 275 280 282 282 279 275 275 275 275 274 274 276 277 277 279 281 281 281 281 280 281 281 282 283 283 282 280 276 272 273 271 268 268 266
279 279 280 281 281 280 280 280 280 280 280 280 280 280 280 279 279 279 278 278 278 278 277 277 278 278 278 278 280 279 279 280 282 284 285 286 286 284 282 279 277 277 276 276 276 276 276 277 278 277 276 276 280 282 282 279 275 275 275 274 273 273 274 276 275 275 276 277 278 279 279 280 280 278 276 277 278 276 274 272 271 269 267 267 267
279 279 279 280 280 279 279 279 279 279 279 280 280 280 280 279 279 278 278 277 277 277 276 276 276 277 277 277 277 278 278 278 279 283 284 285 286 284 281 278 277 276 276 275 274 275 275 276 278 279 279 279 280 282 282 281 275 275 274 273 272 272 275 275 275 275 275 276 276 277 277 277 276 275 275 274 273 272 272 272 271 269 267 266 266
277 278 278 278 278 277 278 278 278 279 279 279 280 279 279 279 279 277 277 277 276 276 276 276 275 276 276 277 276 277 277 277 278 281 283 285 286 285 280 278 277 276 275 274 274 274 274 275 276 279 280 279 280 282 283 283 278 274 274 273 274 275 276 274 275 277 275 275 275 275 275 274 272 272 272 272 271 271 271 271 271 271 269 267 266
276 276 276 276 276 276 276 277 277 277 278 279 278 278 279 279 278 277 276 276 275 275 275 275 275 275 275 275 275 275 277 278 277 279 282 284 285 286 280 278 278 276 275 274 274 274 274 275 275 278 280 280 281 282 283 283 280 275 274 277 277 278 276 275 275 276 275 274 272 271 270 270 269 268 268 268 268 268 269 269 270 270 271 270 269
275 274 274 274 274 275 275 275 275 276 276 277 277 277 278 278 277 276 275 275 274 274 275 275 274 274 274 274 274 274 275 276 279 278 280 282 284 286 284 280 281 277 276 274 274 274 275 275 276 279 281 281 281 282 284 284 280 276 278 279 278 279 278 275 274 274 272 270 271 271 271 268 267 268 266 266 268 269 269 270 270 270 270 271 271
273 273 273 273 272 272 273 273 274 274 275 275 276 277 277 277 277 276 275 274 274 274 274 274 274 273 273 274 274 274 274 275 277 279 279 281 283 285 285 283 282 278 276 275 276 275 275 275 276 279 281 281 282 282 283 284 280 279 279 280 279 280 275 273 272 271 269 269 269 270 269 267 266 266 265 266 267 268 269 269 270 270 270 270 270
272 271 271 271 271 271 271 271 271 272 273 274 275 276 276 277 276 276 275 274 274 274 274 274 274 274 274 274 274 274 273 274 274 276 279 280 281 283 285 284 283 281 277 276 276 276 277 278 279 280 281 282 282 282 282 283 283 281 280 280 280 274 270 271 269 269 268 268 269 268 267 265 265 266 267 268 268 269 268 268 268 268 268 268 268
270 270 270 270 270 270 269 269 270 270 271 273 274 276 276 276 276 276 276 275 274 274 274 274 274 274 273 274 274 274 273 273 273 274 276 279 280 282 284 285 283 282 279 277 278 278 279 279 279 280 281 281 280 280 279 280 282 281 280 280 273 269 269 269 268 268 268 267 266 266 265 265 265 266 268 268 267 266 266 265 266 265 266 266 266
269 268 268 268 268 268 268 268 269 269 270 272 273 275 275 275 275 275 275 275 275 274 274 274 274 274 273 274 274 274 273 272 272 273 274 276 277 279 280 282 283 282 279 277 278 277 278 278 277 279 280 281 281 280 279 280 279 280 273 270 268 268 268 269 268 268 266 265 264 263 264 265 266 266 265 265 264 265 266 265 265 265 265 266 265
267 267 267 267 267 267 267 268 268 268 269 270 271 272 273 274 274 274 274 274 274 274 274 274 274 274 274 275 274 274 272 271 271 272 273 274 276 277 279 280 281 280 278 276 276 276 277 278 278 278 278 279 278 276 275 273 270 268 266 266 265 266 267 269 268 266 265 265 264 264 264 264 263 263 264 264 264 264 265 265 264 264 265 265 264
266 265 265 266 265 266 266 267 267 267 268 269 270 271 271 272 273 274 275 276 276 275 275 275 275 276 276 275 275 274 273 271 272 275 274 276 275 276 277 279 280 279 278 278 275 275 276 275 275 275 275 273 270 270 268 268 266 266 266 265 265 265 265 265 264 264 264 264 263 263 262 263 262 262 262 262 262 263 264 264 264 264 265 265 264
264 264 264 264 265 265 265 266 266 267 267 267 267 268 271 274 273 273 273 277 279 280 280 276 277 277 276 276 277 275 275 276 277 277 278 278 279 279 280 281 282 279 279 280 276 274 274 273 274 273 273 271 270 269 268 267 265 263 263 265 264 263 263 263 263 263 263 262 263 262 262 262 262 262 262 262 262 263 264 265 264 265 264 264 264
262 263 263 263 264 264 264 264 265 265 265 265 266 266 266 268 273 275 276 276 278 280 281 281 282 282 279 277 278 280 280 280 279 279 279 279 279 280 281 281 283 281 280 277 274 273 273 272 272 271 270 270 269 269 267 266 265 264 263 263 262 263 263 262 263 262 262 262 262 262 262 262 261 262 261 262 262 263 263 264 264 264 264 264 264
261 261 262 262 262 263 263 263 263 263 263 264 264 264 265 265 266 272 274 275 277 278 280 281 282 282 282 282 280 278 279 281 281 280 280 280 280 280 281 282 282 282 281 280 273 272 272 272 271 270 269 269 269 268 266 266 265 264 263 261 261 262 262 261 262 262 262 262 262 261 261 261 261 261 261 262 262 262 263 263 264 264 264 265 265
259 259 260 260 261 261 261 261 261 262 262 262 263 264 264 264 264 265 268 273 275 276 278 280 281 282 282 282 283 282 280 279 281 281 280 280 280 280 281 282 282 282 282 277 273 272 272 271 270 270 269 269 269 267 266 266 265 264 263 263 261 261 262 263 264 262 262 262 262 261 261 261 261 261 261 262 262 262 263 263 264 264 264 264 264
258 258 258 259 259 259 260 260 260 261 261 262 262 263 263 264 264 265 265 266 269 272 276 278 280 281 282 282 282 282 283 282 281 281 280 280 280 281 281 280 282 283 280 275 273 272 271 270 270 269 268 269 268 266 266 265 264 263 263 262 262 262 262 263 263 261 261 262 262 261 261 261 261 260 261 261 262 262 262 263 264 264 264 265 264
257 258 259 259 259 259 260 261 261 261 262 262 262 263 264 265 266 266 266 266 267 268 269 272 276 279 278 280 281 282 282 283 282 281 281 280 280 281 281 278 278 279 279 275 273 272 271 270 269 268 268 268 267 266 265 264 263 261 261 261 261 261 262 261 261 261 260 260 260 260 260 260 260 261 261 261 262 262 262 263 264 265 264 264 265
257 257 257 258 258 259 259 260 260 260 260 261 261 262 263 263 263 264 265 266 268 270 271 272 272 275 278 279 280 281 282 282 282 282 280 281 281 281 277 276 276 277 277 275 273 272 271 270 269 268 268 267 266 265 263 262 261 261 261 261 260 260 260 260 259 259 259 259 259 260 261 261 261 261 261 261 261 261 263 263 264 265 265 265 265
256 257 257 257 258 258 258 259 259 260 261 261 261 261 262 262 264 265 265 266 267 268 269 271 272 272 275 275 277 279 281 282 282 282 281 280 281 279 277 276 276 276 276 274 272 270 269 269 269 268 267 265 265 264 262 261 261 261 261 260 260 259 259 259 259 259 259 259 260 261 261 260 260 260 260 260 262 263 263 264 264 265 265 265 264
256 256 257 257 257 257 258 258 259 260 260 260 261 261 261 261 262 262 262 263 264 266 270 271 272 272 271 272 276 276 278 280 281 281 281 280 278 277 277 276 276 276 275 273 271 270 269 269 267 266 265 265 263 262 261 261 260 260 260 259 259 258 261 261 262 260 260 260 260 259 259 259 259 260 261 261 262 262 263 264 265 265 265 264 264
256 258 259 259 261 259 259 259 260 260 261 261 261 261 261 261 262 262 262 263 264 266 268 270 271 272 272 273 273 275 276 276 276 276 277 277 277 277 277 276 276 276 273 271 269 268 268 266 265 265 264 263 261 261 260 260 259 259 259 258 258 259 261 260 259 259 258 258 258 258 258 258 259 260 261 261 262 263 264 264 265 265 264 263 263
257 257 258 260 259 260 260 260 260 260 260 261 261 262 263 263 263 263 263 263 263 264 266 267 269 271 272 273 273 274 273 274 275 276 276 275 275 276 277 276 276 272 269 269 268 267 266 265 264 262 261 260 260 260 259 259 258 258 258 257 257 257 258 259 258 257 257 257 257 257 258 258 259 260 261 262 263 264 264 265 265 264 264 263 262
257 258 259 260 260 259 260 260 260 260 260 261 261 261 262 263 264 264 265 265 265 265 265 266 267 269 272 273 275 275 273 273 274 275 275 275 275 275 276 276 273 268 268 267 266 265 264 263 262 261 260 259 259 258 258 257 257 257 256 256 257 257 257 256 256 256 257 257 257 257 257 258 259 260 261 263 265 265 265 265 265 264 263 262 262
257 257 257 258 259 259 259 259 260 261 262 262 262 263 263 264 264 264 265 266 266 266 266 267 268 269 272 273 274 275 274 274 274 274 275 274 274 275 273 270 268 267 266 265 264 263 262 262 260 259 258 258 257 257 257 256 256 256 256 256 255 255 255 255 255 255 256 256 256 257 258 259 261 262 263 265 264 264 264 264 264 263 262 262 262
257 257 257 258 258 258 258 258 259 258 258 259 259 260 261 261 262 264 266 267 267 267 268 268 269 270 271 273 273 275 274 274 271 274 273 272 270 268 267 266 266 266 265 265 264 263 262 261 259 258 257 257 257 256 256 256 256 256 255 255 255 255 255 255 255 255 256 256 257 258 260 260 261 261 262 262 263 264 264 263 263 262 262 262 261
258 258 258 258 258 258 259 259 258 259 259 260 260 261 262 262 263 263 263 264 267 268 268 269 269 270 270 272 273 273 273 274 272 270 268 266 265 265 265 264 264 263 263 263 262 262 262 259 258 257 257 257 257 257 256 256 256 255 255 255 255 255 255 255 255 255 256 256 258 259 259 260 261 261 262 263 263 263 263 262 262 262 262 261 261
258 258 258 258 258 258 258 258 259 259 259 260 259 260 261 261 261 262 264 265 266 268 269 269 269 270 270 270 271 272 270 267 265 264 264 263 263 263 263 263 262 262 261 260 260 259 258 257 256 255 254 254 255 255 255 255 255 255 256 256 255 256 255 255 255 255 256 257 258 259 259 260 260 261 262 263 263 263 263 262 262 261 261 261 260
259 259 259 258 258 258 258 258 259 259 259 259 259 259 260 261 262 262 263 265 266 268 268 269 269 269 269 269 266 264 264 264 263 262 261 261 261 261 262 262 261 261 261 259 259 258 257 256 255 254 253 253 253 253 253 253 254 254 255 255 256 257 256 255 255 256 256 257 257 258 259 260 261 262 263 263 264 264 263 262 261 261 261 260 260
260 260 260 259 259 259 259 259 259 259 259 260 260 260 261 262 263 264 265 266 267 267 268 269 268 266 264 263 263 263 262 262 261 261 261 260 260 260 259 259 259 259 258 257 256 256 255 255 254 253 252 252 252 251 252 252 253 253 253 253 253 253 253 254 254 255 256 257 258 259 260 261 261 262 263 263 263 263 262 262 262 260 260 260 260
260 260 260 261 260 260 259 259 259 260 260 260 261 261 262 263 264 265 266 267 267 267 265 263 263 263 262 261 261 261 261 261 260 260 259 259 258 258 258 256 255 256 255 254 254 254 254 254 253 253 252 252 251 251 251 251 252 252 252 252 252 252 253 254 253 254 255 257 258 260 260 261 262 263 264 264 263 262 261 261 262 261 261 260 260
259 260 260 261 261 261 260 260 260 260 260 261 261 261 262 263 265 266 265 265 265 263 263 262 261 261 260 260 260 259 258 257 256 256 257 257 257 255 254 255 254 253 253 253 253 252 252 252 252 252 252 252 252 252 251 251 251 251 251 251 252 254 254 255 255 255 256 258 259 260 261 262 262 263 264 263 262 262 261 261 261 260 260 260 260
259 259 259 260 260 261 262 261 261 261 261 262 262 263 263 264 264 263 263 262 261 261 260 260 260 259 259 258 258 257 256 255 254 254 254 254 254 254 253 253 253 252 252 251 251 251 251 251 250 250 251 251 251 251 251 251 251 251 251 251 254 256 256 257 258 258 259 260 261 262 264 265 266 264 262 261 260 261 261 261 260 260 260 259 259
258 258 259 259 259 260 260 260 261 261 262 262 262 262 262 261 261 261 260 259 259 258 258 258 258 259 258 258 258 257 255 254 254 254 254 254 253 253 253 252 251 251 251 251 250 250 250 250 250 250 250 250 250 250 250 250 251 251 252 254 255 257 258 259 260 262 263 264 265 266 266 266 263 261 260 261 262 262 261 261 260 259 259 259 259
Wind_Speed
9 8 7 7 7 9 9 7 9 8 8 9 9 9 8 9 9 10 7 10 9 11 12 12 12 13 13 14 14 11 11 11 10 10 10 11 9 10 8 11 12 10 9 10 9 10 10 11 10 9 9 10 8 7 7 8 7 5 5 5 5 5 7 7 7 5 2 1 1 2 1 3 4 1 2 3 4 4 6 7 8 7 7 6 6
13 11 8 7 8 9 9 7 7 7 8 8 10 9 9 9 9 7 10 8 10 11 11 10 10 11 12 13 11 11 12 12 10 11 11 11 11 11 10 11 12 11 10 11 12 9 10 11 11 11 11 10 10 10 9 9 9 8 8 8 7 7 6 7 7 5 5 4 3 1 1 2 6 2 3 5 6 6 8 7 6 6 6 6 6
12 11 10 8 9 8 8 8 7 8 9 8 10 10 9 8 7 9 9 9 9 10 11 12 12 12 11 11 11 12 13 11 10 10 10 12 13 13 14 11 12 12 13 13 12 10 11 12 12 10 8 11 10 9 9 9 8 9 9 8 8 7 8 7 6 7 7 5 5 5 5 5 7 5 3 5 7 8 10 9 7 6 5 6 7
12 12 12 11 9 8 8 8 7 8 9 8 10 9 9 8 7 9 9 9 11 10 12 13 11 11 12 12 12 12 11 11 11 11 12 12 13 13 13 15 16 17 15 12 12 13 14 12 11 12 11 11 11 11 10 10 10 10 10 9 9 9 9 9 8 5 5 5 6 7 6 7 7 7 5 5 7 8 7 8 8 8 8 7 7
11 11 11 12 12 10 10 8 8 9 9 8 9 9 9 8 7 10 9 10 11 9 9 10 10 11 13 15 14 12 12 11 12 12 12 11 12 12 13 13 14 16 17 17 16 13 13 15 12 13 13 12 10 11 11 14 10 10 11 10 10 9 8 8 8 6 6 7 5 5 6 6 6 6 6 6 6 7 8 8 8 8 8 8 7
11 11 11 11 11 12 12 10 9 10 10 9 9 9 8 8 9 8 9 11 10 10 10 9 12 12 14 14 14 13 11 12 13 12 11 11 11 11 10 11 10 11 13 14 14 12 12 14 13 12 14 15 14 12 11 14 12 11 11 10 9 9 10 9 8 8 7 6 6 5 6 7 7 8 7 7 7 7 7 7 8 8 8 7 7
10 10 11 11 10 11 11 11 11 10 9 9 8 7 8 8 9 9 9 11 11 10 11 12 12 13 13 13 13 13 13 13 12 12 12 12 12 12 11 11 11 11 11 13 14 12 10 13 15 13 15 14 14 15 14 13 11 13 12 11 10 10 10 9 9 9 9 7 6 7 6 7 8 7 6 7 8 8 7 6 6 5 5 6 8
12 12 12 11 11 12 11 10 10 10 10 10 9 8 7 7 8 9 8 10 11 11 12 12 12 11 12 13 13 13 14 13 12 12 11 11 12 13 15 14 11 11 11 12 11 10 11 10 10 10 13 13 13 12 14 14 11 11 10 9 11 11 10 9 9 8 8 8 7 7 7 7 6 7 5 6 7 8 8 7 6 5 5 6 8
11 12 12 13 12 10 10 9 9 9 9 9 9 9 9 8 8 8 8 9 9 11 11 11 12 12 11 12 11 11 11 13 12 11 11 12 11 13 16 15 15 11 10 10 9 8 8 9 8 7 13 13 9 12 13 12 12 11 10 11 11 10 8 7 8 8 7 7 7 7 7 7 7 6 7 8 9 7 4 4 5 5 6 8 9
10 11 12 12 12 13 12 11 11 11 11 11 10 10 9 9 8 7 8 8 9 9 9 10 11 12 12 12 11 11 12 11 13 19 15 13 15 14 13 14 15 13 11 10 10 9 10 7 9 10 10 12 13 16 19 20 16 11 12 13 11 10 9 8 8 8 8 9 9 9 8 8 8 8 8 8 6 5 5 5 5 5 6 8 9
10 10 11 10 11 12 13 14 13 12 10 10 9 10 11 9 8 7 7 7 8 9 9 10 10 10 11 12 13 12 11 11 16 19 22 20 15 14 14 14 14 15 12 11 11 11 9 9 8 11 12 13 14 18 20 22 21 19 19 19 17 16 15 11 9 10 10 9 8 8 8 8 8 8 8 7 6 6 4 3 4 6 7 7 8
8 8 8 9 9 10 11 12 13 13 12 11 10 9 8 8 8 7 7 7 7 7 8 9 9 10 9 10 11 12 11 12 17 20 22 23 19 14 12 12 12 13 13 11 10 10 10 9 8 6 9 11 10 13 17 20 20 19 20 22 22 20 18 15 14 9 9 9 9 10 8 8 7 8 8 7 6 5 4 4 6 7 8 9 9
8 8 9 9 9 9 9 9 9 11 12 12 11 10 9 9 8 8 8 7 5 5 9 9 9 9 10 11 12 11 11 12 18 20 22 23 24 18 12 12 12 13 14 14 11 10 10 9 10 9 9 18 14 11 12 14 19 21 20 22 22 22 20 19 15 12 10 8 9 10 9 8 8 9 8 7 5 4 4 6 7 9 10 9 9
8 9 9 10 9 9 10 9 10 10 10 11 11 11 10 10 8 7 6 5 5 6 6 8 9 9 10 11 11 11 11 11 17 19 21 22 23 20 13 13 13 14 14 13 13 12 12 15 15 13 10 14 12 13 14 13 13 14 13 13 13 17 20 21 18 16 13 10 9 9 8 9 8 7 7 7 5 5 5 8 9 10 10 10 8
9 9 10 9 9 9 9 9 10 10 10 10 10 11 11 11 10 8 6 7 6 7 6 7 7 7 9 8 10 10 9 10 15 19 20 22 23 19 13 11 11 9 8 10 11 11 12 13 11 8 8 11 10 15 12 13 14 13 13 13 12 12 13 14 14 12 12 10 9 9 8 10 10 9 7 6 6 7 8 9 11 9 8 7 9
8 8 10 10 10 9 9 9 10 10 9 9 10 11 11 10 11 10 8 7 5 5 6 5 7 8 7 7 9 10 8 10 15 18 20 21 23 14 12 12 11 11 8 9 8 8 8 8 9 11 12 11 18 25 20 14 14 15 15 12 9 11 10 11 14 14 12 10 9 9 9 10 11 9 7 6 7 7 8 9 6 7 8 8 7
8 8 8 10 10 10 10 10 9 9 9 9 10 10 10 12 11 8 8 7 6 6 7 7 6 6 7 7 8 9 7 9 15 18 20 22 18 11 11 10 10 11 9 8 8 8 9 9 10 9 9 10 19 24 24 18 12 15 14 13 11 9 10 8 14 15 12 10 9 9 9 11 13 13 12 15 11 8 3 5 9 7 6 7 6
8 7 9 9 10 9 10 10 10 10 10 11 10 9 8 7 7 7 8 10 9 8 6 7 7 6 7 8 8 9 8 8 14 17 19 21 17 12 10 10 10 10 7 7 6 6 8 16 15 10 10 12 21 24 25 18 13 14 13 12 12 11 10 10 6 11 17 15 15 15 14 14 13 14 15 13 11 9 3 6 5 2 8 7 8
8 8 10 10 10 9 9 10 10 10 10 10 10 10 9 8 7 5 6 6 8 8 7 7 8 6 6 7 7 9 9 7 13 16 19 21 17 11 9 9 10 9 5 5 5 5 7 11 19 15 11 15 24 23 25 18 12 12 10 11 11 13 12 11 10 8 9 11 10 10 11 13 10 3 3 2 5 3 2 4 3 5 8 7 6
8 8 9 9 8 9 10 10 11 11 11 11 10 9 8 8 8 7 6 5 6 6 6 6 9 9 6 6 6 7 8 7 8 17 19 22 23 13 9 9 11 10 8 7 8 7 6 6 14 21 19 22 24 24 23 23 14 11 9 9 9 12 7 8 8 7 8 9 10 9 7 4 4 3 2 2 3 3 5 6 7 7 7 6 4
7 8 8 8 9 10 10 9 12 13 11 10 10 9 8 8 8 7 8 6 5 6 7 7 7 8 7 6 6 7 7 8 9 17 20 22 23 21 9 11 10 9 9 9 7 7 7 7 6 18 22 23 24 24 24 24 18 12 12 8 11 9 10 9 11 14 8 8 7 7 7 4 3 2 1 2 3 4 6 8 8 8 7 5 4
7 7 9 9 9 10 10 11 11 11 11 11 11 12 10 9 8 7 6 6 8 8 7 6 7 7 6 6 7 8 7 10 8 13 19 21 22 24 11 11 12 11 11 9 7 6 8 8 7 16 23 24 24 25 26 25 23 9 9 13 13 14 12 7 7 7 7 7 5 4 4 3 3 2 3 3 5 6 7 7 7 7 7 6 5
7 8 9 10 10 10 10 12 12 11 11 12 13 13 11 9 9 7 7 7 8 9 9 8 7 8 7 7 6 7 7 7 14 11 16 21 23 25 19 13 19 12 12 12 11 8 8 9 11 21 25 25 25 25 25 26 20 12 19 18 18 18 14 8 8 8 7 6 7 8 6 4 4 4 3 4 6 7 7 7 6 6 6 6 7
8 10 10 10 10 10 10 11 11 11 12 12 13 13 12 10 9 7 6 7 7 8 8 7 7 8 9 9 7 7 7 7 11 16 14 20 22 25 23 21 20 12 10 10 8 8 8 9 12 22 24 24 25 25 25 24 14 21 22 22 20 18 9 8 8 7 5 6 8 8 8 4 2 3 4 5 7 6 6 5 5 5 6 6 7
10 11 12 11 11 10 10 11 11 11 12 11 12 12 11 9 9 8 6 7 7 8 9 7 8 8 7 9 9 7 9 7 7 11 18 18 21 23 24 23 22 21 12 9 10 11 14 22 23 24 24 24 25 23 21 24 25 22 23 22 21 6 8 9 8 7 8 8 8 6 6 4 5 5 5 6 6 5 4 4 4 5 5 7 8
11 13 12 11 12 11 12 13 13 12 12 11 11 11 11 10 9 9 7 8 8 8 9 8 8 9 9 9 9 9 8 8 8 8 10 14 15 20 22 22 24 23 18 11 12 15 19 21 25 26 26 23 17 14 10 11 21 21 22 21 7 8 8 9 8 9 9 7 6 7 5 3 4 6 6 5 4 5 4 4 3 4 4 5 7
12 12 13 12 11 11 12 12 12 12 13 11 10 10 9 9 9 9 9 9 9 9 9 9 9 9 10 10 9 8 7 8 7 6 7 8 9 11 14 14 21 23 15 9 11 12 16 17 14 18 14 26 25 19 18 17 15 14 7 8 8 8 9 9 8 7 5 4 4 3 3 4 4 5 6 5 5 5 4 4 4 4 4 5 7
11 13 14 13 12 12 12 13 14 12 12 11 11 11 10 9 9 10 10 9 9 10 9 10 11 11 10 9 8 7 8 6 6 8 10 10 9 9 10 9 9 11 10 9 10 11 11 15 16 12 11 12 11 7 7 5 8 10 10 9 9 8 9 11 8 4 3 3 3 2 3 5 6 6 5 6 6 5 4 4 4 5 4 5 6
12 14 15 13 15 14 13 12 12 12 12 12 11 11 11 11 12 12 13 10 10 11 11 11 11 11 10 10 9 9 8 8 11 12 11 13 11 10 11 11 9 11 12 15 11 9 9 10 9 11 11 9 7 8 9 9 8 7 10 9 8 8 7 7 7 6 6 5 5 5 6 4 4 4 6 6 5 4 4 4 5 5 6 6 7
15 16 15 14 14 14 13 12 11 12 11 12 12 14 16 21 17 15 15 18 22 23 20 15 14 10 10 11 10 12 12 10 9 17 20 20 22 22 19 18 15 11 17 26 16 12 10 9 11 12 12 10 11 10 11 10 9 8 7 9 8 8 8 6 6 6 6 5 4 4 4 5 7 6 5 5 4 4 5 5 4 5 5 6 7
16 16 15 14 14 13 13 13 13 12 12 12 12 13 15 15 21 27 26 27 26 27 26 28 28 26 17 13 11 19 20 15 14 19 21 23 24 24 23 23 22 21 26 19 14 13 13 13 12 11 11 11 11 11 10 9 9 9 9 7 6 9 8 7 6 6 6 5 4 5 5 8 6 5 5 5 4 4 4 4 5 6 6 6 8
16 16 16 15 15 15 13 14 13 14 13 12 12 12 13 15 17 20 25 25 26 27 28 29 29 28 29 25 18 10 16 22 21 19 21 24 24 25 24 25 25 24 29 27 14 13 13 13 12 12 12 12 12 11 11 11 11 10 9 7 6 6 7 6 7 6 5 6 6 7 7 6 6 6 5 4 4 3 4 4 4 5 6 7 8
18 17 17 16 14 14 13 12 12 12 12 12 12 11 11 13 13 15 16 21 26 25 26 27 29 29 29 29 29 24 18 16 22 23 22 23 24 24 25 26 27 26 30 19 14 14 12 13 12 11 11 12 11 10 10 10 10 10 10 10 7 6 6 6 9 6 6 7 7 6 7 6 5 5 4 4 3 3 3 4 5 6 7 8 9
17 16 15 13 13 11 12 11 11 12 12 12 13 13 13 13 13 12 14 13 14 18 23 27 28 28 28 28 27 27 26 25 22 23 23 23 23 24 24 20 26 28 26 15 13 13 12 12 12 12 12 11 10 10 10 10 9 11 8 5 6 6 6 7 7 6 6 6 6 6 6 5 5 4 4 3 3 3 4 5 5 6 6 7 9
15 19 29 24 14 12 12 12 13 13 14 14 14 14 14 14 14 15 14 15 16 17 13 12 18 25 21 19 23 27 27 26 25 23 24 23 24 24 24 15 15 16 18 13 13 13 13 13 12 12 11 11 10 11 11 11 13 11 9 7 7 7 7 7 6 6 6 6 5 5 5 5 5 4 3 3 3 3 4 4 5 6 7 8 9
17 15 14 16 15 13 13 15 14 15 16 16 16 16 16 15 16 15 16 18 16 15 14 14 12 11 22 24 25 25 27 27 25 25 23 24 23 25 14 13 12 13 14 13 13 13 12 12 12 12 12 10 9 10 13 12 9 10 12 10 7 7 7 6 7 6 6 6 6 5 5 5 4 4 3 3 4 4 4 5 5 6 7 8 9
15 14 12 11 12 12 13 13 14 15 17 17 16 15 15 16 16 13 13 13 15 15 16 14 12 12 14 14 19 24 27 25 25 25 24 23 25 18 13 13 11 12 12 11 11 11 12 12 11 11 11 11 10 12 13 9 8 8 8 7 7 7 6 6 6 7 7 6 6 5 5 4 3 3 3 3 4 4 5 5 6 7 7 8 9
15 14 14 14 13 14 13 13 14 19 17 15 14 14 15 15 15 14 15 15 17 16 14 11 13 12 11 10 12 10 13 20 25 22 21 21 17 13 13 12 11 11 11 10 12 12 11 10 10 11 10 11 13 14 13 10 8 6 7 7 6 6 10 8 9 7 7 6 6 5 4 3 3 3 3 3 4 4 5 6 6 7 7 7 6
12 19 26 29 24 17 14 15 15 14 13 14 13 13 14 14 14 13 13 13 14 13 13 11 10 10 10 8 6 8 13 10 10 11 12 12 11 11 11 11 11 10 8 9 10 11 10 10 9 9 10 13 16 16 16 11 8 8 7 7 6 6 9 7 8 6 6 5 4 3 3 2 2 2 3 3 5 5 6 6 7 6 8 8 6
12 11 16 24 17 18 16 15 14 14 14 13 12 12 13 12 11 12 12 12 12 13 12 13 13 9 7 6 7 7 10 10 11 10 10 10 11 11 11 11 11 8 9 9 11 11 11 11 11 12 14 16 17 15 13 14 12 9 6 6 6 6 7 6 6 5 5 4 4 3 3 2 2 2 3 4 5 6 6 7 6 6 5 6 6
11 12 15 17 19 15 15 15 14 13 12 13 13 13 13 14 14 13 12 12 12 13 13 13 13 11 9 9 16 16 11 11 11 10 9 11 11 12 11 10 7 9 9 10 10 10 11 11 10 14 15 16 16 16 14 11 9 7 7 5 5 5 6 5 5 4 4 4 4 3 2 2 2 3 4 5 6 6 6 7 6 6 6 5 7
11 12 12 13 15 14 13 14 13 14 12 12 10 10 11 12 12 13 14 13 14 13 12 12 11 9 14 25 23 25 16 11 11 9 9 10 10 9 5 5 7 8 9 10 10 10 10 11 15 17 17 17 16 13 9 9 8 8 7 6 6 6 5 5 4 5 5 4 3 3 3 3 4 4 5 6 5 6 7 6 6 6 5 6 6
13 12 12 12 12 12 13 13 13 13 13 14 13 13 14 14 13 14 13 13 14 12 10 10 9 8 10 18 20 24 14 11 9 10 8 6 5 6 7 7 8 8 9 10 9 11 13 16 17 18 20 19 19 18 17 11 10 9 7 7 6 5 5 4 4 5 4 3 4 4 4 3 3 4 4 5 6 6 6 6 6 6 5 6 6
11 12 12 12 12 11 12 11 11 12 11 14 14 14 13 11 10 10 12 13 12 10 11 10 9 8 7 10 14 12 11 9 7 5 6 6 7 8 8 8 9 9 8 9 9 11 14 17 16 13 13 13 12 13 11 9 10 9 8 7 6 6 5 5 5 5 5 5 4 3 3 3 3 4 5 6 5 6 6 6 6 6 5 5 7
12 11 11 11 11 11 11 10 11 11 13 12 11 11 12 10 11 12 12 11 12 11 9 8 7 7 6 7 8 9 4 6 6 6 7 8 8 8 9 9 10 10 10 10 14 17 18 19 18 16 14 11 10 10 9 7 6 5 6 7 7 6 6 6 6 5 5 5 4 3 3 3 3 4 4 6 6 6 6 7 6 7 8 6 6
11 11 11 11 10 10 11 10 10 10 9 9 10 9 9 9 10 11 11 10 10 10 9 7 6 6 6 4 2 4 6 7 8 8 8 8 9 8 8 9 9 10 12 13 16 15 18 19 19 18 17 14 12 9 7 6 6 6 5 4 5 5 4 4 4 5 5 4 4 3 3 3 4 5 6 6 6 7 6 6 5 5 6 7 8
11 10 10 10 10 10 10 10 8 8 9 9 9 10 10 9 9 10 10 12 11 9 8 5 3 3 4 6 6 6 6 8 8 8 10 9 9 10 10 10 12 12 13 12 14 16 16 16 17 18 16 10 8 9 6 5 5 5 3 2 2 2 2 3 4 4 4 5 4 3 4 4 5 5 7 7 6 5 5 6 6 7 7 7 8
10 10 10 10 10 9 9 7 8 10 9 9 9 9 9 10 9 10 9 8 7 3 2 5 5 5 5 6 6 6 7 7 7 9 10 10 9 10 13 18 17 15 16 15 14 14 14 14 14 14 11 8 6 5 5 5 4 4 3 3 3 4 5 6 4 4 4 4 5 5 5 6 6 6 7 7 5 4 4 5 6 7 7 7 7
10 10 10 10 9 8 6 6 7 7 7 7 8 9 9 10 10 7 3 1 3 3 4 5 5 5 6 6 6 6 6 8 11 11 11 11 12 11 13 17 17 19 19 17 15 14 13 13 12 11 12 9 8 8 6 5 4 4 4 4 5 8 8 9 6 5 7 5 6 7 7 7 8 8 7 5 4 4 4 4 6 6 5 6 8
9 10 10 10 10 9 6 4 5 6 6 7 8 7 4 2 3 4 5 5 5 5 5 6 7 6 6 6 6 7 7 8 10 11 11 12 10 9 10 11 15 16 15 14 12 11 12 11 11 10 10 9 8 7 5 5 5 4 4 4 7 9 10 11 11 11 8 5 7 7 7 8 7 4 2 3 3 3 4 4 5 5 6 9 9
10 9 10 10 10 9 8 8 7 6 5 4 4 4 4 5 5 6 6 6 6 6 6 6 7 7 7 6 7 8 8 7 8 11 12 12 11 11 10 11 12 11 9 10 9 8 10 10 8 8 6 3 3 4 3 3 3 4 4 7 9 10 11 10 7 10 14 10 7 7 7 5 3 3 3 2 2 2 3 5 5 6 6 6 8
Wind_Direction
322 295 290 273 261 254 249 239 239 232 227 221 225 222 216 212 213 214 193 203 181 189 193 195 194 197 196 199 198 191 190 189 188 189 195 199 200 198 183 189 191 195 179 187 189 185 190 187 182 181 166 176 176 169 171 169 167 170 168 169 174 170 171 179 191 208 124 127 122 147 51 341 291 153 289 285 284 274 268 269 275 279 280 281 285
340 324 306 286 272 268 261 253 242 235 231 228 229 227 224 220 213 198 208 204 190 197 195 191 193 195 200 204 204 202 202 201 192 190 192 193 199 203 201 189 196 192 183 188 188 188 184 186 185 178 176 178 171 178 172 167 173 172 178 179 180 177 186 168 201 185 200 146 191 150 185 210 263 271 282 287 281 282 280 278 266 265 279 288 294
342 333 323 311 293 283 281 267 252 244 238 235 236 234 234 231 209 210 209 198 194 199 195 191 190 192 197 197 198 201 201 198 195 196 199 196 199 203 204 194 194 189 190 193 184 179 184 192 186 169 163 178 180 175 168 175 173 176 176 178 177 179 180 190 162 192 200 196 164 181 193 203 228 257 252 264 281 291 293 292 292 291 285 290 292
349 349 342 330 319 307 293 282 273 258 248 244 243 239 236 234 212 216 212 203 202 205 200 199 194 194 199 200 200 200 197 199 197 200 201 197 202 205 205 205 205 205 200 186 180 184 190 181 184 174 172 176 175 175 178 176 178 179 173 176 179 176 180 181 197 172 179 189 196 187 187 199 229 245 251 265 273 279 278 288 294 293 293 291 285
354 357 358 351 343 336 316 302 288 275 261 257 252 248 241 235 221 219 212 215 213 203 206 199 197 196 202 203 202 202 201 196 199 202 202 202 204 205 208 210 212 213 210 202 193 185 184 192 175 167 173 177 174 179 179 180 178 175 179 176 178 175 168 179 185 178 173 194 189 177 175 196 218 238 242 251 256 248 248 252 264 269 272 270 272
352 357 3 6 360 352 341 327 307 289 281 274 264 258 252 241 233 227 217 223 216 212 204 201 206 205 205 203 202 201 196 197 201 202 200 199 201 204 205 204 207 213 219 218 206 194 193 194 185 173 175 180 183 178 172 178 175 178 177 176 172 167 171 177 178 180 186 197 188 194 200 210 220 229 222 223 236 249 246 240 235 242 251 260 254
354 0 0 6 6 3 354 345 330 316 302 288 280 268 255 247 240 236 223 225 221 215 212 211 213 212 211 205 204 200 201 200 199 198 197 197 199 199 200 201 203 203 209 216 218 213 201 197 196 187 187 186 178 177 175 174 174 179 179 173 169 166 170 174 177 179 186 189 201 212 218 219 217 229 209 207 225 237 252 258 257 240 241 251 270
356 359 1 3 5 359 355 346 343 334 323 315 305 291 274 258 244 242 232 228 225 223 216 215 216 214 214 210 209 205 206 205 202 199 196 193 197 204 205 206 203 205 205 207 208 212 211 203 198 186 189 190 182 175 169 175 168 175 175 165 169 168 172 171 171 177 182 187 194 200 212 218 221 222 220 226 233 232 226 233 251 269 274 269 261
355 358 359 1 358 354 350 348 347 346 341 336 326 311 297 278 265 252 240 237 231 229 225 219 218 218 218 215 210 205 208 209 205 198 194 194 195 202 205 206 207 204 202 202 200 201 206 210 208 189 199 205 199 188 184 168 162 166 171 166 170 170 168 167 172 173 179 180 193 202 207 215 218 206 210 213 215 218 211 229 254 265 274 276 267
353 356 0 355 351 350 350 352 353 350 352 350 341 329 314 300 284 267 252 242 240 235 231 226 222 220 217 217 213 211 216 214 210 203 196 196 199 204 204 207 206 204 200 198 197 195 198 200 207 195 186 188 191 192 192 191 192 179 163 166 170 166 172 167 177 181 177 183 195 190 198 211 209 207 213 217 215 221 227 237 263 281 282 275 273
345 352 353 352 348 350 352 350 348 352 351 345 342 338 328 317 302 284 270 254 246 239 230 231 227 223 220 216 214 217 218 217 208 201 202 197 196 202 203 206 204 204 200 193 194 187 184 185 186 190 184 186 191 190 189 191 188 188 185 180 173 170 172 175 184 179 181 189 185 192 204 207 208 204 214 215 214 218 229 247 276 278 270 271 274
336 342 345 344 350 351 351 346 346 344 346 346 342 337 329 322 314 303 294 281 263 252 245 240 236 229 228 226 224 223 224 217 206 205 202 201 197 200 204 206 203 206 204 198 190 181 177 173 179 172 187 184 176 188 192 193 189 184 182 184 187 188 183 170 167 174 188 179 187 200 194 204 199 203 212 205 210 214 228 252 262 260 259 259 262
330 337 341 344 347 348 346 349 343 342 340 338 337 336 336 330 326 321 306 291 292 269 255 249 244 238 231 231 230 226 229 209 208 205 204 203 200 196 208 206 204 207 205 204 196 181 174 166 171 184 183 185 182 182 179 188 190 187 185 186 190 190 194 196 187 179 171 175 186 198 197 190 196 212 206 203 200 211 249 258 253 251 255 259 261
332 334 339 341 343 344 345 344 343 339 337 335 335 335 336 334 324 312 303 297 279 271 263 254 251 244 237 236 238 236 232 221 211 208 206 204 203 198 209 205 209 208 205 200 200 196 189 191 193 194 179 183 180 174 175 177 179 183 185 186 189 195 198 200 196 189 181 184 189 194 194 188 207 206 199 191 204 227 241 250 252 258 257 259 276
328 337 337 336 338 341 342 341 337 336 336 335 335 333 333 329 330 328 326 315 305 288 274 267 255 251 251 243 243 241 237 222 215 211 208 206 206 201 208 209 211 210 202 199 197 192 191 196 192 176 163 183 180 175 165 174 178 182 185 187 186 188 195 197 197 193 191 191 194 196 198 207 216 219 208 214 223 235 237 244 255 261 271 283 281
321 330 335 333 335 334 336 333 331 329 330 332 332 331 328 326 323 325 323 314 298 288 281 270 266 259 252 251 250 249 242 223 220 216 212 209 206 205 208 208 210 208 204 204 201 195 188 185 176 175 181 185 185 185 184 175 178 182 183 185 179 189 197 201 198 199 196 197 194 195 198 205 215 215 216 220 232 237 248 249 254 273 282 278 266
318 327 328 329 327 330 329 327 324 322 324 325 324 323 323 321 320 321 317 310 306 298 292 283 280 272 262 253 249 252 248 227 222 218 214 210 206 209 207 208 212 210 207 195 193 194 194 186 184 183 179 182 185 187 187 178 178 181 181 182 182 180 193 187 199 197 186 182 181 191 201 215 226 227 227 232 227 227 233 264 266 272 279 276 269
314 323 322 323 323 324 325 320 320 320 321 321 318 314 310 303 301 315 314 314 313 306 303 296 284 275 267 260 248 252 251 232 227 222 217 214 208 209 206 206 209 211 209 196 191 192 192 194 191 183 182 182 187 189 187 180 181 181 180 175 178 187 195 193 176 206 207 211 217 222 224 224 224 231 239 250 260 269 258 245 262 268 264 259 272
313 320 319 317 317 318 317 316 313 312 310 309 310 309 307 301 295 291 281 283 289 298 299 291 284 271 260 258 261 255 254 240 228 227 222 216 213 211 205 202 206 208 190 192 191 182 193 195 194 191 181 181 189 191 188 181 181 182 173 161 179 191 197 182 183 176 190 203 210 212 217 222 231 235 67 56 247 264 275 255 254 244 256 255 265
304 309 309 309 310 313 312 311 309 307 307 302 303 299 297 298 294 292 281 262 266 266 270 270 274 276 273 270 263 257 259 249 229 229 228 223 217 210 197 197 206 200 194 195 193 199 185 185 196 195 186 184 189 192 191 184 177 180 164 180 169 195 179 177 182 176 183 190 197 200 201 170 133 134 177 165 227 226 253 257 252 245 240 244 244
301 303 304 304 305 305 307 306 308 306 301 300 298 296 292 289 290 286 285 280 270 267 262 261 264 270 269 265 265 258 251 249 238 231 233 229 223 217 193 201 198 191 198 194 193 184 179 184 175 192 189 185 189 194 194 190 179 179 187 180 190 184 167 176 184 185 180 186 189 193 197 154 114 114 198 232 251 252 251 250 241 238 236 232 236
295 301 299 297 299 300 302 304 302 301 301 303 303 297 294 289 283 280 276 279 280 278 274 268 264 265 262 247 246 253 249 245 239 237 235 234 231 223 198 205 189 186 194 195 191 188 182 177 168 188 188 185 190 195 196 195 182 166 183 184 181 180 177 171 174 183 182 182 156 137 153 164 156 177 208 225 243 239 235 233 234 236 241 238 236
298 297 294 292 292 295 297 301 301 303 301 301 298 292 291 291 287 281 280 280 277 278 277 275 274 274 275 258 242 240 238 242 239 233 235 234 232 231 205 195 198 193 194 195 193 185 174 180 181 187 190 190 192 193 194 190 177 174 181 185 188 186 176 175 177 180 173 167 176 191 194 183 201 213 213 235 238 230 225 228 229 235 243 246 253
298 295 292 289 289 290 293 293 293 293 295 295 291 284 283 283 281 276 269 264 271 270 269 266 263 267 267 270 255 231 229 231 237 235 233 233 235 235 220 197 196 194 198 205 191 175 170 172 179 189 191 192 193 195 196 193 175 175 180 187 189 192 174 165 173 179 164 170 187 201 209 191 163 223 222 225 229 228 227 230 240 248 261 268 268
293 289 288 287 286 287 290 288 287 290 289 287 285 284 281 279 279 273 252 257 251 257 262 255 252 254 258 257 260 238 217 226 223 234 234 232 236 237 233 211 199 192 196 206 199 187 182 181 182 186 192 192 192 195 198 198 191 176 182 187 191 147 147 163 164 165 182 191 199 200 213 194 197 215 227 229 233 237 235 246 257 263 270 273 268
286 282 282 283 285 289 290 289 287 284 282 280 277 273 274 278 275 277 262 255 253 251 259 255 251 251 251 253 253 250 219 199 216 222 229 234 235 238 240 227 210 200 190 191 191 192 190 187 186 185 187 189 188 190 190 193 198 190 186 189 143 138 154 156 161 177 192 189 189 205 207 180 197 212 223 232 238 235 237 250 256 262 253 259 272
281 282 281 282 283 282 281 284 287 288 284 282 275 272 270 266 265 264 261 256 256 252 255 252 252 251 249 250 249 245 228 213 215 209 213 223 225 232 235 245 215 208 197 178 177 181 191 192 190 194 201 192 186 175 167 172 186 188 141 118 136 151 153 159 166 173 177 179 177 181 181 197 208 216 224 225 234 237 236 241 258 264 262 263 273
283 283 284 286 285 284 282 278 278 282 279 278 282 282 275 266 263 261 260 254 250 253 246 247 247 246 250 250 248 243 222 201 207 208 213 211 217 219 226 232 206 198 187 175 166 169 172 184 187 191 194 199 187 160 156 148 143 133 142 142 136 140 138 133 123 125 140 146 151 160 189 206 217 217 223 232 239 245 234 246 247 261 257 266 275
286 285 284 285 282 282 281 281 280 279 280 277 268 267 276 281 277 275 262 251 249 254 257 252 246 243 244 249 245 244 236 211 219 212 213 205 203 207 213 219 203 190 173 162 152 156 161 172 177 180 186 182 157 156 149 145 134 139 137 139 134 136 138 144 157 165 158 156 176 191 208 208 224 224 227 238 241 237 237 244 249 249 261 255 259
289 283 281 279 279 281 281 279 277 277 277 280 282 280 266 266 267 269 276 268 256 250 246 250 249 246 245 241 227 234 238 234 213 210 213 212 215 213 216 216 209 181 170 171 158 162 170 169 179 183 182 176 174 168 167 157 148 141 144 143 145 143 146 146 147 156 161 174 172 182 204 210 224 221 225 234 254 239 246 242 253 253 261 268 272
285 282 281 277 277 279 281 282 281 279 277 277 278 278 286 281 267 264 264 269 269 266 261 256 256 254 248 254 241 234 243 239 210 205 211 216 214 215 216 216 213 186 172 166 168 172 174 180 183 182 183 177 174 173 164 163 163 155 155 150 143 154 149 149 160 150 165 165 176 196 208 217 221 221 217 231 238 257 259 256 255 261 259 266 273
283 282 282 282 282 280 279 279 280 279 278 275 273 276 276 280 284 272 267 265 267 268 265 261 257 256 254 251 251 237 241 243 237 227 221 215 213 214 215 213 215 190 181 172 171 182 180 177 178 181 177 181 182 169 167 166 168 170 159 141 150 151 151 155 160 157 158 171 190 201 209 215 221 220 225 229 234 244 255 264 266 263 269 266 267
280 280 281 281 280 279 277 275 274 275 275 274 273 267 268 273 277 287 284 277 276 272 266 262 258 256 252 251 249 248 239 230 234 230 224 219 214 213 213 213 215 198 182 179 185 181 183 181 178 175 177 183 178 176 176 171 167 166 165 162 147 153 152 152 154 158 173 187 189 203 207 211 213 216 221 228 229 243 258 265 272 268 269 274 274
277 276 277 277 277 271 269 267 267 268 266 265 266 266 260 259 259 265 278 283 278 268 264 261 259 256 254 251 250 248 248 240 229 226 222 220 218 216 213 214 215 204 189 189 182 184 180 178 177 176 177 179 177 173 174 174 170 164 148 117 130 129 141 150 155 157 169 187 196 203 207 210 210 208 226 223 235 242 257 262 264 268 275 280 289
277 275 276 278 276 276 274 273 272 272 272 272 273 272 271 272 271 269 264 264 265 270 271 259 251 251 252 253 250 249 245 244 232 223 222 218 217 216 213 212 212 213 199 190 185 183 180 182 174 172 171 178 179 177 178 170 162 153 145 135 132 139 148 158 160 168 175 189 202 205 210 209 211 213 217 230 245 258 259 262 263 268 281 289 293
275 273 271 269 266 264 266 269 269 270 273 272 271 271 271 269 266 265 271 271 271 264 255 251 258 254 253 254 252 248 245 242 237 223 218 217 215 213 211 209 210 210 204 191 185 183 176 176 172 172 171 172 171 179 168 143 150 147 137 137 142 147 150 156 161 168 178 188 203 203 206 211 209 210 216 238 239 248 257 260 267 275 281 287 292
274 272 269 264 263 263 264 265 265 266 269 269 268 266 263 265 264 254 248 255 253 252 255 258 255 250 246 243 247 250 246 240 238 228 215 214 213 213 214 217 211 207 205 187 179 171 175 177 172 168 164 162 167 169 147 146 136 129 145 141 139 142 150 149 151 166 178 188 198 200 204 207 207 213 213 235 258 258 258 261 264 275 284 284 293
267 270 271 269 267 265 264 260 261 263 263 261 258 255 259 257 262 271 276 275 275 278 276 255 238 237 237 241 233 240 251 245 237 231 217 212 212 211 211 214 210 208 202 181 176 171 170 162 158 160 159 159 159 149 141 140 142 141 144 141 144 145 153 159 171 173 187 191 191 192 199 202 207 219 222 234 258 266 267 269 279 291 288 286 290
267 267 271 273 273 272 266 266 266 265 262 260 250 246 244 248 251 251 253 256 264 263 264 269 260 243 236 230 218 223 236 236 223 219 206 202 203 208 209 206 207 207 183 171 160 161 156 155 152 145 153 155 139 137 141 139 138 136 138 134 137 155 164 165 168 172 181 187 184 183 189 205 210 229 237 233 254 256 263 269 278 285 297 301 290
269 269 273 276 276 273 272 272 272 270 269 269 268 267 266 261 249 245 243 244 247 255 263 263 263 255 241 219 217 216 227 229 225 217 204 194 197 205 208 204 201 176 164 159 159 154 150 150 149 140 136 131 136 136 138 136 135 134 137 149 153 160 164 160 166 169 179 182 179 182 187 205 231 234 246 247 245 256 261 272 287 288 292 293 288
274 274 278 280 278 277 274 271 267 263 260 257 255 252 252 256 258 254 246 244 243 244 245 253 258 264 260 240 235 232 226 227 224 217 204 195 195 201 206 203 167 151 151 149 151 146 145 141 143 142 128 130 131 130 131 128 129 134 142 143 144 150 160 167 171 171 172 181 181 181 194 211 228 236 244 253 263 269 273 278 280 295 295 290 285
274 273 273 272 273 272 270 268 267 265 267 270 269 265 260 251 246 244 249 248 246 243 239 238 238 236 240 244 244 239 233 223 223 217 206 197 196 194 167 120 132 143 144 145 141 136 132 139 141 131 133 133 128 127 125 130 140 140 147 153 161 162 164 171 175 183 180 178 177 191 195 214 223 230 249 268 279 274 271 273 287 297 297 285 284
274 270 270 265 266 261 261 263 263 267 267 269 270 272 272 274 279 283 278 262 249 249 249 246 238 229 230 237 239 238 234 225 210 208 194 169 131 115 122 129 131 133 134 135 139 142 145 143 136 140 142 146 147 146 149 150 146 144 143 148 157 164 161 160 174 183 182 177 184 202 209 230 243 250 259 260 259 269 271 277 286 290 278 287 285
272 271 266 263 261 259 258 255 258 256 257 260 261 262 264 273 276 266 264 276 280 261 243 238 237 234 229 232 235 236 231 218 184 145 129 125 122 116 118 121 121 120 125 134 141 140 139 130 111 111 95 112 118 117 120 138 141 145 150 150 153 163 167 168 177 176 179 175 186 196 221 227 240 244 250 263 266 269 272 270 279 286 289 290 298
276 271 269 266 262 258 257 253 255 258 261 265 264 266 267 266 259 264 269 267 266 269 260 245 234 226 224 219 220 226 200 95 115 112 115 118 116 116 119 123 126 127 125 127 124 123 116 116 122 127 126 120 122 123 129 130 140 141 141 151 149 164 175 185 183 174 169 170 183 201 215 227 234 246 254 262 267 262 255 268 280 298 306 299 300
279 277 271 267 264 258 257 252 249 249 252 250 251 254 251 251 252 260 263 267 266 264 260 243 227 217 216 200 103 88 113 113 111 112 108 108 115 120 123 127 126 130 131 135 132 119 124 128 129 125 120 123 125 124 133 134 134 135 139 145 154 155 155 161 151 156 173 179 192 204 224 234 250 247 252 264 262 264 255 268 284 294 301 300 295
294 286 282 272 268 259 255 251 252 249 249 250 251 252 251 251 256 253 249 246 250 253 246 225 200 127 94 103 113 112 111 119 120 115 120 117 118 122 126 125 123 121 122 116 110 118 118 115 113 114 115 122 123 123 123 134 146 153 148 136 134 170 163 175 181 190 190 198 202 207 226 240 247 252 257 259 254 249 256 280 293 300 299 298 297
304 304 296 289 276 265 254 248 248 251 251 255 258 260 263 265 258 252 252 250 241 215 119 70 95 101 102 95 100 103 104 110 114 116 117 118 118 126 130 126 117 122 113 95 101 106 109 107 108 114 115 118 114 122 121 128 125 136 155 173 182 195 203 196 195 203 208 209 210 222 232 235 244 245 254 252 239 249 262 286 296 304 304 299 295
318 316 315 312 308 288 257 248 241 244 246 251 255 256 257 257 257 253 240 99 68 72 92 93 85 93 91 86 86 74 82 96 100 105 110 115 120 117 114 113 114 103 95 100 97 90 94 98 98 101 99 108 101 116 130 135 151 155 176 178 207 215 217 217 209 209 212 212 220 227 230 231 238 245 241 225 232 262 258 276 294 296 295 295 296
329 328 328 329 335 338 322 263 249 248 254 250 255 261 278 326 20 42 45 55 54 51 51 70 82 76 80 86 89 90 95 104 101 101 97 102 104 107 104 97 93 96 94 97 94 95 95 92 94 96 98 105 119 125 139 145 155 172 168 191 210 215 222 227 227 226 215 224 224 232 228 238 238 230 215 237 240 241 255 278 287 294 292 297 294
337 339 340 346 348 349 359 4 3 4 1 5 22 36 38 45 45 44 49 44 53 55 55 59 74 82 82 86 99 98 98 97 102 110 111 110 111 112 105 103 99 95 90 89 90 89 88 87 96 98 108 111 123 139 139 154 158 161 189 201 214 222 226 227 229 235 233 234 239 243 248 241 221 224 250 238 253 246 252 278 288 288 292 288 294